Theta_e
291 292 292 292 292 292 289 288 283 287 287 291 293 294 296 297 298 298 298 298 298 298 298 299 298 298 296 294 295 295 294 294 291 292 291 291 290 289 290 291 290 288 287 286
287 291 292 289 292 291 290 290 289 289 288 295 296 297 297 298 298 298 297 298 299 299 299 299 298 297 294 296 296 296 293 294 294 294 294 293 293 292 291 290 288 286 284 283
284 287 286 283 286 288 289 291 289 284 289 295 295 296 296 297 298 297 298 298 298 298 298 297 295 294 293 294 295 295 295 295 294 294 293 292 292 291 288 285 283 282 281 281
283 284 278 289 293 293 290 291 292 293 294 295 296 298 299 299 297 298 298 298 298 298 297 295 293 292 293 294 293 293 293 293 293 292 292 290 287 285 282 282 281 280 280 281
278 281 285 288 291 289 287 288 294 293 295 296 298 297 295 299 299 299 299 299 299 297 294 292 291 292 294 291 292 294 293 290 288 287 286 284 282 281 281 280 279 279 280 279
282 280 277 284 291 297 295 282 295 295 294 294 296 289 293 298 297 297 299 300 297 294 292 291 291 292 291 289 287 286 286 287 287 286 284 282 281 280 280 278 279 279 280 279
273 278 279 289 294 296 277 283 293 296 296 294 293 295 297 297 295 297 296 294 293 292 291 291 292 294 291 284 285 287 287 287 285 285 283 282 280 279 278 278 278 273 273 276
279 279 278 294 294 286 290 292 295 295 295 295 295 295 295 295 293 294 291 291 291 291 289 292 294 293 286 283 286 287 286 285 284 283 283 281 279 278 278 277 274 269 269 272
284 282 291 295 295 295 297 295 294 296 298 295 294 294 293 291 292 292 290 288 289 288 292 293 293 289 285 285 287 285 284 283 282 282 281 280 278 277 276 275 273 271 272 273
287 291 293 295 298 298 297 296 298 296 294 295 293 292 291 290 289 288 288 288 289 292 291 289 290 285 285 286 286 283 282 281 281 280 280 279 278 278 274 273 272 276 274 274
290 293 295 296 296 298 299 297 296 296 296 293 293 291 290 289 288 287 288 290 291 288 288 287 286 284 284 284 284 282 281 281 280 279 277 277 278 276 276 276 273 273 273 278
288 295 295 296 298 299 295 295 295 293 292 293 291 289 289 287 288 289 290 289 288 287 287 287 287 285 284 284 282 280 280 279 277 275 275 275 274 276 280 280 280 281 281 279
296 299 298 298 296 296 293 293 294 293 291 290 289 289 288 287 288 289 289 286 287 286 286 285 284 283 283 279 279 277 276 278 276 276 275 274 273 274 270 273 279 279 280 279
299 299 294 294 292 294 293 293 293 293 292 290 288 287 287 287 288 287 286 285 284 284 285 283 282 281 282 281 278 273 271 273 275 274 273 272 267 269 268 267 265 268 275 277
296 296 295 292 292 292 293 292 290 289 290 288 288 286 286 284 284 284 284 283 282 282 282 281 279 280 281 281 280 278 278 274 270 271 271 270 268 268 266 265 266 267 268 274
292 291 291 290 290 289 289 289 288 288 288 286 285 284 284 284 283 282 283 280 279 279 280 274 274 279 281 280 279 276 277 276 274 273 271 272 271 267 268 265 265 267 267 272
287 285 286 285 286 285 286 287 286 285 286 284 283 281 281 277 279 280 280 277 275 274 275 274 275 280 280 280 279 276 273 278 277 272 270 271 267 266 266 263 263 264 269 270
290 289 288 286 285 285 284 285 284 283 283 283 278 278 279 278 277 278 277 275 274 272 280 280 278 280 277 281 281 278 271 274 275 271 271 267 266 268 263 263 263 263 269 270
289 288 287 287 287 284 284 284 283 282 280 281 283 281 280 276 278 278 273 271 278 275 280 276 280 280 279 280 280 273 270 270 272 272 268 266 263 263 263 261 261 263 266 268
288 289 288 286 285 282 282 282 280 279 281 283 283 278 278 279 279 274 279 275 278 281 277 280 280 279 276 279 279 275 270 270 271 270 266 265 263 263 262 263 267 264 264 266
283 284 282 281 281 280 277 279 275 283 284 277 280 281 279 278 275 280 272 278 277 280 281 280 280 279 281 279 274 272 270 274 268 268 265 264 262 260 258 261 266 264 263 264
283 281 280 279 279 281 282 278 281 283 283 282 282 280 278 277 274 273 274 279 280 281 280 279 279 280 280 279 278 278 278 277 271 265 267 263 263 261 258 261 264 263 263 263
284 283 283 280 281 282 280 283 286 285 284 283 282 280 278 279 277 273 274 278 280 280 279 280 280 280 279 279 279 279 279 278 270 269 268 266 263 261 259 263 264 264 263 264
283 283 283 283 279 281 279 285 284 285 285 283 281 280 281 275 278 278 280 280 281 281 280 281 280 280 279 278 278 279 279 274 269 269 270 269 266 262 260 262 264 263 263 263
283 282 282 279 279 282 284 284 284 283 281 281 281 281 281 280 277 274 270 274 280 280 280 280 281 281 279 278 278 278 279 271 271 268 268 267 268 265 261 262 263 264 263 262
283 283 284 283 283 286 284 285 284 281 281 280 279 282 283 281 281 278 277 278 277 279 279 280 280 281 280 279 279 279 279 273 270 268 268 267 268 266 265 260 260 263 264 262
282 278 282 284 282 284 284 284 282 281 281 282 282 283 282 281 280 280 280 279 279 279 279 279 279 279 279 277 280 279 274 273 271 271 269 267 267 267 267 264 263 264 264 263
Wind_Speed
7 8 5 17 17 17 11 15 7 15 13 13 3 2 5 7 6 7 7 7 7 7 8 8 9 7 6 4 5 3 4 5 3 4 4 3 4 5 5 4 5 3 4 5
10 8 8 19 15 13 13 15 11 10 13 2 6 6 6 9 14 14 6 8 13 11 10 11 9 7 5 6 7 6 4 2 4 4 4 5 3 6 7 5 4 3 4 4
6 5 6 11 8 5 6 7 8 7 6 3 9 8 10 17 16 14 7 13 14 13 10 8 6 5 6 6 6 3 3 1 2 4 6 9 6 4 4 3 2 3 5 4
4 1 5 10 6 6 5 7 7 3 4 6 9 11 11 12 13 7 13 16 15 10 9 6 4 7 6 5 2 3 4 4 5 5 5 4 2 2 2 2 3 4 5 4
2 3 7 12 9 2 3 7 4 4 10 12 16 16 11 6 8 12 18 13 11 7 4 4 7 7 4 6 6 4 3 4 3 4 2 3 5 5 3 3 4 3 4 5
3 4 6 9 4 4 1 6 5 5 8 16 14 12 12 7 10 15 14 11 7 5 5 6 6 4 5 6 6 6 5 4 2 3 4 4 4 4 3 2 4 4 4 5
3 7 10 9 7 1 6 10 4 9 15 12 7 5 8 10 14 12 8 6 7 6 6 7 5 4 4 2 4 3 3 4 5 5 4 4 3 2 3 4 4 4 5 6
2 4 10 4 3 2 8 3 13 13 3 3 4 5 10 11 9 7 7 8 9 9 6 5 5 4 2 2 1 5 5 5 5 5 4 4 5 4 5 5 3 4 5 6
11 9 4 4 9 6 8 12 6 2 3 2 7 8 6 6 8 7 7 7 7 6 6 4 5 3 5 2 3 4 4 4 4 4 4 4 5 5 3 3 2 4 4 6
6 8 10 9 15 14 6 1 3 4 4 6 5 6 5 6 8 7 5 6 6 8 8 9 5 3 2 1 3 4 4 4 3 4 5 5 4 3 1 3 4 5 5 7
15 17 19 16 10 4 4 2 1 7 2 9 5 4 5 7 7 7 6 7 7 7 7 5 5 4 4 4 4 4 4 3 4 3 4 4 4 3 3 4 3 4 4 4
15 14 11 13 1 0 3 2 6 11 11 5 1 5 5 6 5 6 7 5 5 5 4 3 1 2 3 3 4 3 3 3 2 2 3 3 3 4 10 9 11 12 12 9
13 17 10 3 9 9 5 3 6 10 4 5 3 3 4 5 3 4 4 3 6 6 4 4 3 3 3 1 1 1 2 3 2 3 3 3 3 3 4 6 11 11 10 13
14 9 2 5 2 4 9 8 8 5 4 3 3 2 4 6 5 5 6 6 5 6 3 3 4 4 4 2 2 3 4 6 3 2 3 3 3 2 2 2 4 5 7 11
5 9 4 6 2 6 6 5 6 6 6 6 6 6 5 6 6 6 6 5 5 5 4 4 4 4 3 4 3 3 3 2 1 2 3 3 2 2 2 2 3 3 3 5
9 8 7 6 7 8 10 9 6 8 7 7 7 6 6 6 6 6 6 4 3 5 5 4 5 5 3 3 4 3 3 3 2 2 3 2 2 2 3 3 3 3 3 4
9 7 7 4 6 6 9 8 6 7 8 7 8 6 4 3 5 4 5 3 3 5 5 4 5 4 4 3 3 2 2 3 4 2 2 2 2 2 2 1 2 3 2 3
7 7 6 4 5 8 9 8 7 8 7 5 4 2 3 4 6 5 5 4 3 4 2 3 2 0 3 4 4 2 1 3 1 2 2 2 3 2 1 1 2 3 2 3
2 7 7 6 7 8 8 8 8 6 7 7 6 6 4 5 4 3 3 2 2 2 4 3 5 4 5 6 5 1 1 1 2 2 2 3 3 2 1 1 1 2 2 2
4 7 8 7 8 6 8 8 7 6 7 5 6 4 4 6 4 3 4 3 2 2 3 4 5 5 4 5 6 2 1 2 2 2 2 2 1 2 1 1 0 1 2 2
10 9 9 9 10 9 8 7 5 9 11 5 7 6 5 5 4 5 2 2 3 0 4 4 4 3 3 2 2 1 2 2 2 2 2 1 1 1 2 1 0 0 2 2
7 7 9 9 8 12 10 6 6 6 8 7 7 4 4 5 3 2 4 3 0 3 2 3 3 3 3 4 2 3 3 3 3 2 2 2 2 1 2 1 1 0 0 1
9 10 11 9 11 13 8 6 6 9 9 9 7 5 6 3 3 3 1 4 1 2 3 3 3 3 3 3 4 3 3 3 3 3 3 3 3 3 3 2 2 2 1 1
11 11 11 10 6 8 8 10 6 8 9 6 4 5 3 2 2 2 2 1 3 4 3 3 3 3 4 2 3 4 3 3 3 3 3 4 3 3 2 3 2 1 2 3
11 11 10 9 8 9 9 6 8 6 4 3 4 3 4 3 3 3 0 3 4 2 3 4 4 5 3 3 3 4 4 3 3 3 2 3 3 3 3 3 3 3 2 2
11 10 9 9 9 10 6 5 6 2 3 2 2 4 4 3 2 1 1 3 3 2 2 2 1 3 3 4 4 4 4 3 3 3 3 3 3 3 4 3 3 4 3 3
8 7 6 9 5 6 5 6 3 2 3 4 4 4 4 3 2 3 2 2 2 2 1 2 2 3 3 4 4 4 3 3 4 4 4 3 3 4 4 4 4 4 3 3
Wind_Direction
233 242 255 272 283 289 279 256 230 278 282 312 83 311 280 268 289 279 266 269 285 288 307 304 318 314 317 335 349 18 94 121 124 88 81 78 62 46 15 329 271 293 298 320
289 230 235 264 277 269 271 275 267 271 281 234 275 280 313 320 312 309 274 286 316 305 310 312 308 312 329 312 311 279 218 132 85 65 72 42 334 231 232 279 337 322 352 317
265 34 360 299 241 208 225 261 279 273 257 306 319 320 327 317 308 302 302 304 307 299 287 283 293 308 295 302 306 344 37 268 188 185 193 220 234 257 300 306 341 332 308 316
263 89 198 248 280 287 278 267 268 258 289 281 299 310 312 290 284 288 311 303 304 291 286 291 299 294 288 283 285 254 276 280 282 255 269 293 287 319 355 346 328 329 320 315
230 201 286 294 277 234 184 263 171 263 313 326 322 313 310 306 305 312 301 288 288 275 283 311 295 282 289 308 294 250 295 323 29 58 4 356 27 8 345 351 336 320 320 329
174 254 264 237 234 219 261 284 220 318 303 312 314 298 307 13 315 305 297 284 290 330 320 294 300 343 9 340 340 66 81 77 48 34 46 41 14 356 342 321 314 335 339 322
183 246 281 248 260 311 75 283 239 299 304 303 297 306 336 325 297 305 312 4 348 336 309 299 292 348 333 68 73 70 54 36 45 34 22 28 19 350 336 331 343 351 328 305
217 221 270 173 44 131 240 270 302 314 321 310 287 317 303 304 321 347 358 340 330 323 307 316 340 323 130 156 102 51 44 39 18 6 10 15 10 341 338 356 1 310 307 301
192 215 235 233 290 223 285 305 321 340 333 317 299 298 325 293 320 326 325 309 309 294 282 290 290 233 186 155 112 76 57 22 9 22 7 352 352 342 344 353 296 296 293 303
351 261 265 298 289 294 303 324 8 323 322 328 304 270 307 309 318 319 298 313 311 328 342 318 317 93 149 127 68 73 41 12 23 0 351 348 355 353 321 301 304 310 307 302
258 267 278 270 268 288 101 54 268 247 193 236 271 317 294 306 314 313 327 341 5 7 312 4 34 41 48 50 46 39 22 10 357 355 349 341 335 286 296 288 255 298 286 316
254 264 261 288 334 92 93 344 18 344 290 213 182 277 284 305 298 336 350 330 309 336 328 244 279 68 39 40 53 43 3 348 316 319 320 317 309 312 322 335 333 337 345 1
267 273 275 341 61 38 69 244 268 267 233 248 269 284 308 297 294 309 329 316 270 291 317 359 20 29 6 45 114 113 275 290 301 311 299 299 310 312 315 317 340 346 352 355
252 268 119 78 97 25 8 297 289 259 246 280 270 290 281 277 301 305 306 294 316 308 314 340 340 353 339 314 301 301 293 285 265 258 278 301 301 293 292 306 318 315 332 356
107 88 115 74 65 267 264 289 308 296 260 271 252 249 268 296 295 295 300 306 310 303 318 332 327 324 348 350 349 330 318 347 353 298 290 282 296 321 321 328 321 298 323 341
109 107 85 25 347 336 322 327 305 291 273 260 254 256 258 263 280 295 293 293 326 315 308 301 286 283 306 347 350 358 340 325 276 268 298 333 318 327 320 334 322 323 328 342
83 55 45 284 287 308 298 293 279 275 284 262 257 255 258 290 291 276 298 306 280 290 295 278 276 317 310 317 329 315 303 299 319 357 339 321 303 293 303 318 322 325 323 339
91 164 200 219 321 303 298 302 297 287 272 281 297 277 263 258 253 280 288 312 333 348 305 323 260 338 309 312 295 298 282 293 318 303 290 320 301 310 312 327 334 341 330 344
356 348 321 293 277 282 278 282 279 271 271 254 251 245 228 246 242 255 288 336 298 14 335 315 316 302 286 278 277 230 276 261 305 304 307 317 338 339 348 335 320 343 350 354
281 244 244 272 281 263 272 272 275 275 271 265 253 239 251 252 214 203 225 246 221 203 276 327 319 307 292 299 297 192 195 231 260 283 326 340 350 305 323 316 356 1 1 7
287 283 278 278 278 277 244 251 257 301 301 261 231 230 239 249 200 211 167 266 248 297 318 308 292 287 301 336 345 259 222 232 251 248 257 240 288 333 340 328 53 128 1 7
275 270 273 276 277 288 286 243 239 264 267 254 233 224 223 234 235 231 219 227 225 333 300 296 292 331 353 340 301 284 244 236 227 231 220 196 190 194 254 283 180 227 211 22
289 284 289 286 286 286 285 244 257 272 269 246 213 213 212 208 180 143 253 233 154 274 262 271 292 338 353 315 294 285 282 255 234 227 215 195 198 191 204 211 201 179 151 121
284 282 280 282 284 286 272 283 282 278 258 217 186 211 184 199 267 231 197 187 251 255 255 270 275 258 269 233 275 289 280 271 248 236 212 186 196 196 190 189 180 179 150 134
286 282 282 282 282 277 267 278 296 270 199 165 191 178 176 193 166 231 260 296 311 250 286 302 276 267 244 258 271 272 276 241 247 229 212 200 190 185 192 177 177 171 167 168
286 285 287 280 280 287 268 279 284 212 156 188 190 190 178 155 112 280 288 286 277 252 280 295 299 294 270 260 247 260 272 240 221 221 213 209 181 182 187 184 179 172 178 184
281 269 278 288 276 268 262 277 216 205 204 192 191 161 150 154 184 238 265 266 258 263 273 291 289 300 295 296 286 260 243 239 224 214 214 209 190 183 192 190 182 181 179 185